ISS
NORAD ID: 35948
Int'l Code: 2009-056A
Perigee: 343.8 km
Apogee: 351.9 km
Inclination: 51.6°
Period: 91.3 min
Semi major axis: 6,718.9 km
Launch date: October 15, 2009
Source: Commonwealth of Independent States (former USSR) (CIS)
Comments: PROGRESS-M 03M is a Russian-made craft will that deliver two-and-a-half tons (2.3 metric tons) of supplies to the Space Station. The "dry" cargo tucked aboard the Progress amounts to 1,750 pounds [794 kg] in the form of spare parts, life support gear and equipment hardware. The refueling module carries 1,918 pounds (870 kg) of propellant for transfer into the Russian segment of the complex to feed the station's maneuvering thrusters. The vessel also has 926 pounds [420 kg] of water.
Two Line Element Set (TLE):
1 35948U 09056A 09320.39693447 +.00019449 +00000-0 +12418-3 0 00467
2 35948 051.6444 244.8718 0006080 338.6182 123.3765 15.76374636005116
More details about PROGRESS-M 03M